"Pseudo-MPEC" for CA202DH

Created 2020 Sep 16 16:07:17 UT using Find_Orb

Click here for an explanation of pseudo-MPECs

 
 Astrometry: 
     CA202DH  C2020 09 04Y3(s($Fh_py'=gV5CAstrometry+yIuredacted;eclick$lZTG_954
     CA202DH  C2020 09 041`DilLhereG8o`cnA5wpo@!IDv4HCoforj.h*'2Ms_NeT5NVUl.%954
     CA202DH  C2020 09 04;NdLVyOyH+Cexplanation0s(7,/dE^PSM$/)3!k8qtr[FO4u(\[954

Station data:
(954) Teide Observatory  (N28.298383 W16.509400)  Canary Islands (Spain).

Orbital elements:  CA202DH
   Perihelion 2020 Mar 25.342157 +/- 258 TT =  8:12:42 (JD 2458933.842157)
Epoch 2020 Sep  4.0 TT = JDT 2459096.5   Earth MOID: 0.0082   AutoNEOCP
M 172.53483471 +/- 110              (J2000 ecliptic)
n   1.06072250 +/- 0.638            Peri.  330.58798 +/- 58
a   0.95221465 +/- 0.382            Node   199.26147 +/- 70
e   0.0681114 +/- 0.197             Incl.    2.16569 +/- 46
P   0.93/339.38d           H 25.8   G  0.15   U 12.4  SR
q 0.88735792 +/- 1.08    Q 1.01707138 +/- 17.2
From 3 observations 2020 Sept. 4 (8.0 min); mean residual 0".12
Residuals in arcseconds: 
200904 954  .07-  .01-    200904 954  .23+  .03+    200904 954  .16-  .03-    

Ephemerides (geocentric):
Date (UTC) HH   RA              Dec         delta   r     elong  mag " sig PA
---- -- -- --  -------------   -----------  ------ ------ -----  --- ---- ---
2020 09 16 16  02 37 59.165   +51 53 17.11  .02777 1.0167 113.8 20.4  37d 134
2020 09 16 17  02 37 54.530   +51 52 26.64  .02773 1.0167 113.8 20.4  37d 134
2020 09 16 18  02 37 49.873   +51 51 35.94  .02770 1.0167 113.9 20.4  37d 134
2020 09 16 19  02 37 45.196   +51 50 45.00  .02766 1.0167 113.9 20.4  37d 134
2020 09 16 20  02 37 40.498   +51 49 53.84  .02762 1.0167 114.0 20.4  37d 134
2020 09 16 21  02 37 35.779   +51 49 02.43  .02759 1.0167 114.0 20.3  37d 134
2020 09 16 22  02 37 31.038   +51 48 10.79  .02755 1.0167 114.1 20.3  37d 134
2020 09 16 23  02 37 26.276   +51 47 18.91  .02751 1.0167 114.1 20.3  37d 134
2020 09 17 00  02 37 21.494   +51 46 26.79  .02748 1.0167 114.2 20.3  37d 134
2020 09 17 01  02 37 16.689   +51 45 34.43  .02744 1.0167 114.2 20.3  37d 134
2020 09 17 02  02 37 11.864   +51 44 41.83  .02740 1.0167 114.3 20.3  37d 134
2020 09 17 03  02 37 07.017   +51 43 48.99  .02737 1.0167 114.3 20.3  37d 134
2020 09 17 04  02 37 02.149   +51 42 55.91  .02733 1.0167 114.4 20.3  37d 134
2020 09 17 05  02 36 57.260   +51 42 02.57  .02730 1.0167 114.4 20.3  38d 134
2020 09 17 06  02 36 52.349   +51 41 08.99  .02726 1.0167 114.5 20.3  38d 134
2020 09 17 07  02 36 47.416   +51 40 15.17  .02722 1.0167 114.5 20.3  38d 134
2020 09 17 08  02 36 42.462   +51 39 21.09  .02719 1.0167 114.6 20.3  38d 134
2020 09 17 09  02 36 37.487   +51 38 26.76  .02715 1.0167 114.6 20.3  38d 134
2020 09 17 10  02 36 32.489   +51 37 32.19  .02711 1.0166 114.7 20.3  38d 134
2020 09 17 11  02 36 27.471   +51 36 37.36  .02708 1.0166 114.7 20.3  38d 134
2020 09 17 12  02 36 22.430   +51 35 42.27  .02704 1.0166 114.8 20.3  38d 134
2020 09 17 13  02 36 17.368   +51 34 46.93  .02701 1.0166 114.8 20.3  38d 134
2020 09 17 14  02 36 12.284   +51 33 51.33  .02697 1.0166 114.9 20.3  38d 134
2020 09 17 15  02 36 07.178   +51 32 55.47  .02693 1.0166 114.9 20.3  38d 134
2020 09 17 16  02 36 02.051   +51 31 59.36  .02690 1.0166 115.0 20.3  38d 134
2020 09 17 17  02 35 56.901   +51 31 02.98  .02686 1.0166 115.0 20.3  38d 134
2020 09 17 18  02 35 51.730   +51 30 06.34  .02682 1.0166 115.1 20.3  38d 134
2020 09 17 19  02 35 46.536   +51 29 09.44  .02679 1.0166 115.1 20.2  38d 134
2020 09 17 20  02 35 41.321   +51 28 12.27  .02675 1.0166 115.2 20.2  38d 134
2020 09 17 21  02 35 36.084   +51 27 14.84  .02671 1.0166 115.2 20.2  38d 134
2020 09 17 22  02 35 30.825   +51 26 17.14  .02668 1.0166 115.3 20.2  38d 134
2020 09 17 23  02 35 25.543   +51 25 19.17  .02664 1.0166 115.3 20.2  38d 134
2020 09 18 00  02 35 20.240   +51 24 20.93  .02660 1.0166 115.4 20.2  38d 134
2020 09 18 01  02 35 14.914   +51 23 22.42  .02657 1.0166 115.5 20.2  38d 134
2020 09 18 02  02 35 09.567   +51 22 23.63  .02653 1.0166 115.5 20.2  38d 134
2020 09 18 03  02 35 04.197   +51 21 24.57  .02650 1.0166 115.6 20.2  38d 134
2020 09 18 04  02 34 58.805   +51 20 25.24  .02646 1.0165 115.6 20.2  38d 134
2020 09 18 05  02 34 53.390   +51 19 25.63  .02642 1.0165 115.7 20.2  38d 134
2020 09 18 06  02 34 47.953   +51 18 25.74  .02639 1.0165 115.7 20.2  38d 134
2020 09 18 07  02 34 42.494   +51 17 25.57  .02635 1.0165 115.8 20.2  38d 134
2020 09 18 08  02 34 37.013   +51 16 25.11  .02631 1.0165 115.8 20.2  38d 134
2020 09 18 09  02 34 31.509   +51 15 24.38  .02628 1.0165 115.9 20.2  38d 134
2020 09 18 10  02 34 25.983   +51 14 23.36  .02624 1.0165 115.9 20.2  38d 134
2020 09 18 11  02 34 20.434   +51 13 22.06  .02620 1.0165 116.0 20.2  39d 135
2020 09 18 12  02 34 14.863   +51 12 20.47  .02617 1.0165 116.0 20.2  39d 135
2020 09 18 13  02 34 09.269   +51 11 18.59  .02613 1.0165 116.1 20.2  39d 135
2020 09 18 14  02 34 03.653   +51 10 16.42  .02609 1.0165 116.1 20.2  39d 135
2020 09 18 15  02 33 58.014   +51 09 13.97  .02606 1.0165 116.2 20.2  39d 135